Overview Statistics Trail Chart Weather Telemetry Raw packets
 

This is the latest recevied weather packets stored in our database for station/object VU3OPX-13. If no packets are shown the sender has not sent any weather packets the latest 10 day(s).

<< 5 6 7 8 9 10 11 >>
Time Temp. Humidity Pressure Rain* Wind** Luminosity Snow
1788092722 23.89° C 80% 1011 hPa 0 mm - - -
1788090935 24.44° C 80% 1011 hPa 0 mm - - -
1788089148 25° C 76% 1010 hPa 0 mm - - -
1788087360 25° C 76% 1010 hPa 0 mm - - -
1788085573 25.56° C 74% 1010 hPa 0 mm - - -
1788083786 25° C 74% 1010 hPa 0 mm - - -
1788081998 25.56° C 75% 1011 hPa 0 mm - - -
1788080215 25.56° C 75% 1011 hPa 0 mm - - -
1788078424 26.11° C 72% 1011 hPa 0 mm - - -
1788076636 26.11° C 72% 1011 hPa 0 mm - - -
1788074849 26.67° C 74% 1012 hPa 0 mm - - -
1788073061 25.56° C 75% 1012 hPa 0 mm - - -
1788071274 25° C 76% 1012 hPa 0 mm - - -
1788069487 25° C 77% 1012 hPa 0 mm - - -
1788067699 24.44° C 79% 1013 hPa 0 mm - - -
1788065912 24.44° C 79% 1013 hPa 0 mm - - -
1788064125 23.89° C 81% 1012 hPa 0 mm - - -
1788062337 23.89° C 81% 1012 hPa 0 mm - - -
1788060550 22.78° C 85% 1012 hPa 0 mm - - -
1788058763 22.78° C 86% 1012 hPa 0 mm - - -
1788056976 22.22° C 89% 1011 hPa 0 mm - - -
1788055188 22.22° C 89% 1011 hPa 0 mm - - -
1788053405 21.67° C 91% 1011 hPa 0 mm - - -
1788051614 21.67° C 91% 1011 hPa 0 mm - - -
1788049827 21.67° C 91% 1011 hPa 0 mm - - -

* Rain latest hour (hover to see other rain measurements)
** Current wind speed in m/s (hover to see current wind gust speed)